Location: Chihuahua
(28.6330°N, 106.0830°W)
Time: 09:33:59
(UTC-07:00)

Daily predictions for brighter satellites

Satellite Brightness Start Highest point End
(mag) Time Altitude Azimuth Time Altitude Azimuth Time Altitude Azimuth
SL-16 R/B 3.5 18:56:16 10° SE 18:59:50 17° E 19:03:25 10° ENE
HJ-1C 4.1 18:58:08 10° SE 19:01:10 33° ENE 19:04:14 10° N
Meteor 2-21 4.5 18:55:15 10° S 19:01:19 71° E 19:07:29 10° N
NOSS 0 Rocket 3.9 18:59:53 10° SSW 19:06:02 80° ESE 19:12:13 10° NNE
ATLAS 2AS CENTAUR R/B 3.5 19:05:09 10° NNW 19:12:18 39° NE 19:18:33 11° ESE
ERS-2 3.4 19:10:35 10° SE 19:13:34 24° ENE 19:16:33 10° NNE
YAOGAN 6 4.2 19:11:28 11° ESE 19:13:44 18° ENE 19:16:14 10° NNE
Cosmos 2344 4.5 19:08:13 10° SSE 19:14:03 23° ESE 19:19:42 10° ENE
Cosmos 2154 Rocket 4.1 19:08:47 10° S 19:15:03 90° E 19:21:18 10° N
Resurs 01 Rocket 3.2 19:12:35 11° ESE 19:15:23 18° ENE 19:18:23 10° NNE
Cosmos 1151 Rocket 3.7 19:12:07 10° SSE 19:15:54 32° E 19:19:43 10° NNE
deb Centaur AC-2 3.9 19:19:54 10° W 19:24:13 85° SSW 19:27:41 16° ESE
Cosmos 1980 3.8 19:18:42 10° SSW 19:24:23 82° WNW 19:30:05 10° NNE
Cosmos 1455 2.2 19:22:33 10° S 19:26:22 87° W 19:30:13 10° N
Cosmos 1666 Rocket 3.5 19:22:06 10° N 19:26:33 80° E 19:30:58 10° S
SJ-6B 2.8 19:23:59 10° SSE 19:27:59 68° ENE 19:31:56 10° N
Stardust Del rocket 4.2 19:26:04 10° SW 19:28:40 28° SSE 19:30:59 18° ESE
Sich 1 3.0 19:24:35 10° N 19:28:52 85° W 19:33:07 10° S
Thor Agena Rocket 3.5 19:26:22 10° NNE 19:31:39 78° ESE 19:36:56 10° S
Cosmos 1869 4.1 19:31:24 13° SSE 19:34:26 30° E 19:37:59 10° NNE
Cosmos 962 Rocket 4.5 19:28:41 10° S 19:34:48 90° E 19:40:59 10° N
Meteor 2-3 Rocket 3.8 19:29:34 10° N 19:35:07 60° E 19:40:43 10° SSE
Cosmos 1844 Rocket 3.2 19:31:58 10° NNW 19:37:32 61° WSW 19:43:03 10° S
Resurs 1-3 4.2 19:38:37 21° SE 19:40:58 37° ENE 19:45:00 10° N
Cosmos 2333 Rocket 4.2 19:37:23 10° SW 19:42:23 32° WNW 19:47:24 10° N
Cosmos 2218 Rocket 4.2 19:37:00 10° SSE 19:43:04 51° E 19:49:13 10° NNE
Cosmos 2341 Rocket 4.2 19:36:49 10° S 19:43:11 80° W 19:49:32 10° N
CZ-2D R/B 3.4 19:39:41 10° S 19:43:28 71° WSW 19:47:16 10° NNW
Cosmos 1892 3.2 19:40:11 10° NNW 19:44:00 61° W 19:47:48 10° S
Cosmos 1939 Rocket 3.0 19:44:30 25° SE 19:46:25 48° ENE 19:50:10 10° N
USA 186 1.4 19:47:55 44° NE 19:47:55 44° NE 19:49:45 10° N
Cosmos 2366 rocket 4.1 19:44:14 10° SSE 19:50:12 52° E 19:56:15 10° NNE
Cosmos 2237 Rocket 3.2 19:45:31 10° SW 19:50:55 49° WNW 19:56:22 10° N
Genesis I 3.2 19:48:20 10° NNW 19:52:25 78° ENE 19:54:12 32° SE
Cosmos 1844 4.3 19:48:49 10° NNW 19:54:25 57° WSW 20:00:02 10° S
Cosmos 1633 Rocket 3.8 19:51:29 10° NNW 19:55:43 53° W 19:59:58 10° S
SL-8 Rocket 3.9 19:51:08 10° S 19:57:26 84° E 20:03:44 10° N
Cosmos 1515 Rocket 4.3 19:58:19 10° SSW 20:02:40 56° W 20:07:04 10° N
OAO 2 Rocket 3.5 20:00:54 10° WNW 20:06:04 62° SSW 20:07:53 38° SE
Cosmos 2278 Rocket 2.1 20:02:41 10° NNW 20:08:22 73° ENE 20:10:53 34° SSE
Cosmos 405 Rocket 4.5 20:10:36 20° NE 20:10:36 20° NE 20:12:07 10° NNE
BREEZE-M DEB (TANK) 4.1 20:07:05 10° SSW 20:10:41 44° ESE 20:21:07 10° NE
ASTRO E2 3.1 20:06:52 10° W 20:10:50 58° N 20:11:55 41° NE
Cosmos 1825 1.9 20:10:45 10° N 20:14:32 78° E 20:14:41 76° ESE
ATLAS 2A CENTAUR R/B 4.4 19:51:10 10° WSW 20:15:17 73° S 20:22:31 27° E
Hubble Space Telescope 1.8 20:11:33 10° SW 20:14:24 32° SSW 20:14:24 32° SSW
Envisat 4.4 20:11:42 10° SSW 20:16:20 36° W 20:20:59 10° NNW
H-2A R/B 3.6 20:23:57 20° NE 20:23:57 20° NE 20:26:29 10° NNE
OAO 3 Rocket 3.0 20:19:46 10° WSW 20:24:29 70° SSE 20:24:33 70° SSE
CZ-4C R/B 2.0 20:29:40 59° E 20:29:40 59° E 20:34:27 10° NE
Meteor 2-10 Rocket 3.9 20:25:43 10° SSW 20:31:22 72° W 20:37:11 10° N
ARGOS 3.9 20:33:06 37° ENE 20:33:06 37° ENE 20:37:24 10° N
Aurora 2 Rocket 3.8 20:24:44 10° WSW 20:33:09 50° S 20:34:02 48° SSE
Cosmos 1452 Rocket 3.5 20:35:18 62° ENE 20:35:18 62° ENE 20:39:59 10° NNE
Cosmos 1408 3.8 20:32:55 10° NNW 20:36:21 38° W 20:36:44 37° WSW
SL-16 R/B 3.2 20:38:07 10° SW 20:43:29 45° WNW 20:48:54 10° N
Sakura Rocket 3.8 20:42:37 10° W 20:46:16 46° WSW 20:46:16 46° WSW
Resurs 01 Rocket 3.3 20:50:09 24° SW 20:51:36 29° W 20:55:26 10° NW
Cosmos 1190 Rocket 4.2 20:53:36 10° NNW 20:58:14 68° NW 20:58:14 68° NW
ATLAS 2AS CENTAUR R/B 4.0 20:56:25 10° NW 21:03:04 35° WSW 21:06:02 25° SSW
Cosmos 1821 Rocket 4.2 21:10:59 63° NNE 21:10:59 63° NNE 21:16:14 10° N
Cosmos 2297 4.4 21:18:52 10° NNW 21:23:19 51° NW 21:23:19 51° NW
Cosmos 2369 Rocket 4.3 21:20:51 10° NNE 21:22:25 15° NNE 21:22:25 15° NNE
Cosmos 2344 4.4 21:20:32 10° SW 21:27:51 46° NW 21:35:26 10° NNE
NOSS 3-4 (A) 4.0 21:26:54 10° NNW 21:33:44 71° W 21:33:44 71° W
NOSS 3-4 (C) 4.0 21:27:00 10° NNW 21:33:48 72° W 21:33:48 72° W
ATLAS 5 CENTAUR R/B 4.4 21:37:44 10° N 21:40:22 19° NNE 21:40:22 19° NNE
H-2A R/B 4.3 22:04:34 19° NW 22:04:34 19° NW 22:06:18 10° NW
ATLAS 2A CENTAUR R/B 4.3 22:28:23 10° W 22:38:54 43° W 22:38:54 43° W
